Regional Weather Roundup
Issued by NWS

Home | Current Version | Previous Version | Graphics & Text | Print | Product List | Glossary On
Versions: 1 2 3 4 5 6 7 8 9 10 11 12 13 14 15 16 17 18 19 20 21 22 23 24 25 26 27 28 29 30 31 32 33 34 35 36 37 38 39 40 41 42 43 44 45 46 47 48 49 50
000
ASUS43 KLOT 231300
RWRIL

ILLINOIS REGIONAL WEATHER ROUNDUP
NATIONAL WEATHER SERVICE CHICAGO/ROMEOVILLE IL
800 AM CDT WED JUL 23 2014

NOTE: "FAIR" INDICATES FEW OR NO CLOUDS BELOW 12,000 FEET WITH NO
SIGNIFICANT WEATHER AND/OR OBSTRUCTIONS TO VISIBILITY.

* THESE STATIONS ARE NOT UNDER NWS QUALITY CONTROL. THEY ALSO MAY NOT
  REPORT WEATHER SUCH AS PRECIPITATION OR FOG.

ILZ001-002-007-009-015-016-024-231400-
NORTHWEST ILLINOIS

CITY           SKY/WX    TMP DP  RH WIND       PRES   REMARKS
MOLINE         SUNNY     71  62  73 NE8       30.12S
STERLING*      SUNNY     68  61  77 NE9       30.15R
$$

ILZ003-004-008-010-011-017-018-231400-
NORTH CENTRAL ILLINOIS

CITY           SKY/WX    TMP DP  RH WIND       PRES   REMARKS
ROCKFORD       MOSUNNY   67  56  67 NE14      30.17S
FREEPORT*      SUNNY     62  58  87 NE10      30.18S
$$

ILZ005-006-012>014-019>023-231400-
NORTHEAST ILLINOIS

CITY           SKY/WX    TMP DP  RH WIND       PRES   REMARKS
CHICAGO-OHARE  MOSUNNY   66  53  63 NE18      30.12R
CHICAGO-MIDWAY MOSUNNY   68  59  73 N16       30.11R
AURORA         SUNNY     66  56  70 NE14      30.13R
LANSING*       CLOUDY    66  57  73 N12G22    30.12R
WAUKEGAN       SUNNY     63  55  75 N15G22    30.13R
DUPAGE AIRPORT SUNNY     66  56  70 N15       30.13R
WHEELING       SUNNY     67  56  67 N16G22    30.15R
NORTHERLY ISL    N/A     63  57  81 MISG        N/A
$$

LMZ740>746-231400-
SOUTHERN LAKE MICHIGAN

STATION/POSITION SKY/WX   TEMP    WIND        PRES    VSBY  WAVE
                          AIR SEA DIR/SP/G                  HT/PER
                          (F)     (DEG/KT/KT) (MB)    (MI)  (FT/S)
SOUTHERN BUOY              60 60  350/ 19/ 23 1019.3R         5/ 6
WAUKEGAN HARBOR            62      10/ 19/ 26 1021.0S
HARRISON CRIB              64     360/ 26/ 30   N/A
BURNHAM HARBOR             63     350/ 12/ 18   N/A
CALUMET HARBOR             65     360/ 10/ 19 1018.5R
MICHIGAN CITY              65     360/ 25/ 29   N/A
$$

ILZ025>027-034>036-040-047-049-050-058-095>099-231400-
WEST-CENTRAL ILLINOIS

CITY           SKY/WX    TMP DP  RH WIND       PRES   REMARKS
QUINCY         SUNNY     73  67  81 N16       30.10R
GALESBURG*     CLOUDY    69  66  90 NE12      30.11S
MACOMB*        MOSUNNY   71  67  89 NE13      30.12R
$$

ILZ028>032-037-038-041>044-048-051>054-059>061-231400-
CENTRAL ILLINOIS

CITY           SKY/WX    TMP DP  RH WIND       PRES   REMARKS
BLOOMINGTON    MOSUNNY   66  59  77 NE16      30.12R
PEORIA         PTSUNNY   72  61  68 NE15G25   30.11R
SPRINGFIELD    PTSUNNY   76  68  76 NE18G25   30.07R
TAYLORVILLE    NOT AVBL
$$

ILZ033-039-045-046-055>057-062-063-231400-
EAST-CENTRAL ILLINOIS

CITY           SKY/WX    TMP DP  RH WIND       PRES   REMARKS
CHAMPAIGN      PTSUNNY   68  61  78 NE18      30.06S
MATTOON        CLOUDY    74  70  87 NE8       30.03R
$$

ILZ079-100>102-231400-
SOUTHWEST ILLINOIS

CITY           SKY/WX    TMP DP  RH WIND       PRES   REMARKS
ALTON          MOSUNNY   77  77 100 N12       30.03R FOG
BELLEVILLE     MOSUNNY   78  74  88 CALM      30.02S HX  81
CAHOKIA*       PTSUNNY   81  74  79 N7        30.03R HX  86
SPARTA*        MOSUNNY   77  70  78 W6        30.03F
$$

ILZ064>066-069>071-074>076-080>082-084>086-088>090-092>094-231400-
SOUTH-CENTRAL ILLINOIS

CITY           SKY/WX    TMP DP  RH WIND       PRES   REMARKS
CARBONDALE     TSTM      76  69  79 SW5       30.02S
MARION         CLOUDY    79  70  73 S6        30.03S HX  81
MT. VERNON     CLOUDY    75  66  73 NE8       30.05R
SALEM*         MOSUNNY   76  73  90 E3        30.03R FOG
$$

ILZ067-068-072-073-078-083-087-091-231400-
SOUTHEAST ILLINOIS

CITY           SKY/WX    TMP DP  RH WIND       PRES   REMARKS
FLORA*           N/A     71  70  96 S7        30.04R
HARRISBURG*    MOSUNNY   72  71  96 S3        30.04S FOG
ROBINSON*      TSTM      71  69  94 CALM      30.03S
$$

ABBREVIATIONS USED IN REMARKS
   TC - TEMPERATURE IN CELSIUS
  WCI - WIND CHILL INDEX
   HX - HEAT INDEX
  VSB - VISIBILITY
$$



USA.gov is the U.S. government's official web portal to all federal, state and local government web resources and services.